Location: Altavilla Irpina
(41.0000°N, 14.7833°E)
Time: 00:38:17
(UTC+00:00)

Cosmos 2369 - Pass Details

Date: 19 May 2025
Orbit: 840 x 852 km, 71.0° (Epoch: 23 June)

Event Time Altitude Azimuth Distance (km) Brightness Sun altitude
Rises 21:33:16 0° 336° (NNW) 3,409 8.2 -26.0°
Reaches altitude 10° 21:35:44 10° 337° (NNW) 2,468 7.2 -26.1°
Maximum altitude 21:41:25 86° 67° (ENE) 848 3.6 -26.5°
Enters shadow 21:41:45 79° 137° (SE) 860 3.5 -26.5°
